Tracking 20040 objects as of 18-Nov-2019
Live streaming from Space Station
objects crossing your sky now

COSMOS 1855

Track COSMOS 1855 now!
10-day predictions
COSMOS 1855 is classified as:


NORAD ID: 18116
Int'l Code: 1987-051D
Perigee: 1,453.0 km
Apogee: 1,484.5 km
Inclination: 74.0 °
Period: 115.1 minutes
Semi major axis: 7839 km
RCS: 0.6844 m2 (medium)
Launch date: June 16, 1987
Source: Commonwealth of Independent States (former USSR) (CIS)
Launch site: PLESETSK MISSILE AND SPACE COMPLEX (PKMTR)
aabbcc
Your satellite tracking list
Your tracking list is empty




NASA's NSSDC Master Catalog

Two Line Element Set (TLE):
1 18116U 87051D   19322.33780611 -.00000007  00000-0  62306-4 0  9993
2 18116  74.0046 240.1910 0020053 321.5375 175.4860 12.50690072480558
Source of the keplerian elements: AFSPC